Baghdad,

3:46 PM +03 on January 18, 2018 (GMT +0300)
Baghdad

Weather History for KQTZ - January, 2013

Change the Weather History Date:

Wednesday, January 2, 2013

  Actual Average Record
Temperature  
Mean Temperature 52 °F -  
Max Temperature 60 °F - - ()
Min Temperature 44 °F - - ()
Degree Days  
Heating Degree Days 13    
Growing Degree Days 2 (Base 50)    
Moisture  
Dew Point 35 °F    
Average Humidity 56    
Maximum Humidity 76    
Minimum Humidity 27    
Precipitation  
Precipitation 0.00 in - - ()
Sea Level Pressure  
Sea Level Pressure 30.25 in    
Wind  
Wind Speed 4 mph ()    
Max Wind Speed 10 mph    
Max Gust Speed -    
Visibility 5.4 miles    
Events      
Averages and records for this station are not official NWS values.
T = Trace of Precipitation, MM = Missing Value Source: Averaged Metar Reports

Daily Weather History Graph

Daily Weather History Graph

Search for Another Location

Airport or City:

Trip Planner

Search our weather history database for the weather conditions in past years. The results will help you decide how hot, cold, wet, or windy it might be!

Date:

Astronomy

Jan. 02, 2013 Rise Set
Actual Time 7:06 AM +03 5:07 PM +03
Civil Twilight 6:39 AM +03 5:34 PM +03
Nautical Twilight 6:08 AM +03 6:05 PM +03
Astronomical Twilight 5:38 AM +03 6:35 PM +03
Moon 10:00 PM +03 (1/2) 9:52 AM +03 (1/2)
Length of Visible Light 10h 55m
Length of Day
10h 00m
Waning Gibbous, 78% of the Moon is Illuminated
Jan 2
Waning Gibbous
Jan 5
Last Quarter
Jan 11
New
Jan 19
First Quarter
Jan 27
Full

Hourly Weather History & Observations

Time (+03) Temp. Windchill Dew Point Humidity Pressure Visibility Wind Dir Wind Speed Gust Speed Precip Events Conditions
12:55 AM 50.0 °F - 37.4 °F 62% 30.22 in 5.0 mi North 3.5 mph - N/A   Haze
1:55 AM 50.0 °F - 37.4 °F 62% 30.23 in 5.6 mi North 3.5 mph - N/A   Haze
2:55 AM 48.2 °F - 35.6 °F 62% 30.24 in 5.6 mi North 3.5 mph - N/A   Haze
3:55 AM 46.4 °F 45.2 °F 37.4 °F 71% 30.23 in 5.6 mi North 3.5 mph - N/A   Partly Cloudy
4:55 AM 46.4 °F 45.2 °F 37.4 °F 71% 30.22 in 5.0 mi North 3.5 mph - N/A   Partly Cloudy
5:55 AM 44.6 °F 42.2 °F 37.4 °F 76% 30.24 in 5.0 mi North 4.6 mph - N/A   Partly Cloudy
6:55 AM 44.6 °F 43.1 °F 37.4 °F 76% 30.25 in 5.0 mi North 3.5 mph - N/A   Partly Cloudy
7:55 AM 44.6 °F 42.2 °F 37.4 °F 76% 30.26 in 3.7 mi Variable 4.6 mph - N/A   Partly Cloudy
8:55 AM 46.4 °F 44.3 °F 37.4 °F 71% 30.28 in 5.0 mi North 4.6 mph - N/A   Haze
9:55 AM 46.4 °F 44.3 °F 37.4 °F 71% 30.28 in 5.0 mi North 4.6 mph - N/A   Haze
10:55 AM 55.4 °F - 35.6 °F 47% 30.28 in 5.0 mi North 5.8 mph - N/A   Haze
11:55 AM 57.2 °F - 35.6 °F 44% 30.26 in 6.2 mi North 5.8 mph - N/A   Partly Cloudy
12:55 PM 59.0 °F - 30.2 °F 34% 30.23 in 6.2 mi North 10.4 mph - N/A   Clear
1:55 PM 60.8 °F - 30.2 °F 31% 30.22 in 6.2 mi North 8.1 mph - N/A   Clear
2:55 PM 60.8 °F - 26.6 °F 27% 30.23 in 6.2 mi North 9.2 mph - N/A   Clear
3:55 PM 60.8 °F - 28.4 °F 29% 30.22 in 6.2 mi North 9.2 mph - N/A   Clear
4:55 PM 59.0 °F - 30.2 °F 34% 30.24 in 6.2 mi Variable 3.5 mph - N/A   Clear
5:55 PM 55.4 °F - 33.8 °F 44% 30.25 in 6.2 mi NW 3.5 mph - N/A   Clear
6:55 PM 53.6 °F - 35.6 °F 51% 30.26 in 5.0 mi Variable 2.3 mph - N/A   Haze
7:55 PM 51.8 °F - 37.4 °F 58% 30.27 in 5.0 mi Variable 2.3 mph - N/A   Haze
8:55 PM 50.0 °F - 35.6 °F 58% 30.28 in 5.0 mi Variable 2.3 mph - N/A   Haze
9:55 PM 50.0 °F - 35.6 °F 58% 30.27 in 5.0 mi NNW 5.8 mph - N/A   Haze
10:55 PM 50.0 °F - 33.8 °F 54% 30.28 in 5.6 mi NW 3.5 mph - N/A   Haze
11:55 PM 46.4 °F 45.2 °F 35.6 °F 66% 30.27 in 5.6 mi Variable 3.5 mph - N/A   Haze